TOPSWRTT 000
TTAA00 KICT 010712

Wichita AWIPS Roundup
National Weather Service Wichita KS
200 AM CDT MON SEP 01 2014

....Central Kansas....
  
CITY           SKY/WX    TMP DP  RH WIND       PRES   REMARKS
RUSSELL        CLOUDY    65  63  93 S7        29.78S                  
SALINA         RAIN      64  61  90 S23       29.78F                  
GREAT BEND     CLOUDY    64  61  88 SE7       29.82R                  
ELLSWORTH      DRIZZLE   64  64 100 SE8       29.79R                  
MCPHERSON      CLOUDY    63  63 100 NE16      29.84R                  
HAYS           MOCLDY    64  59  82 NW5       29.80S                  

....South Central Kansas....
  
CITY           SKY/WX    TMP DP  RH WIND       PRES   REMARKS
HUTCHINSON     CLOUDY    64  61  90 E15G22    29.79F                  
NEWTON         CLOUDY    61  55  82 E8        29.88F THUNDER          
KINGMAN        CLEAR     68  61  77 E10G21    29.80F                  
WICHITA (ICT)  TSTM      66  62  87 NE17G26   29.84F                  
JABARA ARPT    LGT RAIN  63  63 100 NE9G21    29.86F                  
MCCONNELL AFB  CLOUDY    64  64 100 NE9       29.87F                  
EL DORADO      HVY RAIN  63  61  94 N15G22    29.90F                  
HARPER           N/A     82  70  65 NE16G25   29.84R HX  86           
WELLINGTON     LGT RAIN  72  64  78 NE16G28   29.85R                  
WINFIELD       MOCLDY    81  68  64 N9        29.83R HX  84           
 
....Southeast Kansas....
  
CITY           SKY/WX    TMP DP  RH WIND       PRES   REMARKS
EUREKA         NOT AVBL                                               
CHANUTE        CLOUDY    72  62  71 E16       29.82F                  
PARSONS        CLOUDY    81  67  62 SE6       29.83F HX  83           
COFFEYVILLE    MOCLDY    82  69  64 VRB7      29.81R HX  85           
INDEPENDENCE   MOCLDY    79  68  69 SE7       29.79S HX  81           
FORT SCOTT     CLOUDY    73  63  68 NE8       29.84F                  
PITTSBURG      CLOUDY    78  67  68 E6        29.86F HX  80           

....Western Kansas....
  
CITY           SKY/WX    TMP DP  RH WIND       PRES   REMARKS
GOODLAND       CLEAR     56  53  90 NW6       29.95R                  
HILL CITY      CLEAR     62  59  90 NW7       29.84R                  
LIBERAL        CLEAR     70  57  64 NE18G26   29.81R                  
GARDEN CITY    CLEAR     64  58  80 NE10      29.83R                  
DODGE CITY     CLEAR     66  59  78 E12       29.81R                  
PRATT          PTCLDY    64  57  77 NE12G23   29.82R                  
MEDICINE LODGE   N/A     81  66  60 E9        29.75R HX  83           

....Northeast Kansas....
  
CITY           SKY/WX    TMP DP  RH WIND       PRES   REMARKS
CONCORDIA      CLOUDY    69  68  96 CALM      29.76S                  
TOPEKA         RAIN      68  68 100 S7        29.90R                  
MANHATTAN      LGT RAIN  68  32  26 SW14      29.84R                  
LAWRENCE       LGT RAIN N/A N/A N/A S9        29.89R                  
OLATHE         LGT RAIN  65  65 100 SW8       29.91R                  
EMPORIA        TSTM      63  63 100 NE12      29.84R                  

....Oklahoma....
  
CITY           SKY/WX    TMP DP  RH WIND       PRES   REMARKS
GAGE           CLEAR     83  61  47 S25G36    29.73R HX  83           
PONCA CITY     PTCLDY    83  67  58 S10G21    29.73S HX  85           
BARTLESVILLE   CLEAR     80  68  66 S9        29.77S HX  83           
TULSA          CLEAR     82  69  64 S20G29    29.77F HX  85           
OKLAHOMA CITY  PTCLDY    81  68  64 S18       29.79S HX  84           

Note: "fair" indicates few or no clouds below 12,000 feet with no
significant weather and/or obstructions to visibility.
  

USA.gov is the U.S. government's official web portal to all federal, state and local government web resources and services.